| time (UTC) | temp F | wind direction | speed MPH | gust MPH | rain 1hr in | rain 24hr in | rain mn in | humidity % | barometer mb |
| 20260508074117 | 73 | 0 | 0.0 | 0.0 | 0.00 | 0.00 | 0.00 | 53 | 1008.8 |
| 20260508071117 | 73 | 0 | 0.0 | 0.0 | 0.00 | 0.00 | 0.00 | 55 | 1008.1 |
| 20260508064117 | 73 | 0 | 0.0 | 0.0 | 0.00 | 0.00 | 0.00 | 56 | 1007.5 |
| 20260508061117 | 73 | 0 | 0.0 | 0.0 | 0.00 | 0.00 | 0.00 | 55 | 1007.2 |
| 20260508054117 | 73 | 0 | 0.0 | 0.0 | 0.00 | 0.00 | 0.00 | 58 | 1007.4 |
| 20260508051117 | 73 | 0 | 0.0 | 0.0 | 0.00 | 0.00 | 0.00 | 58 | 1007.5 |
| 20260508044117 | 73 | 0 | 0.0 | 0.0 | 0.00 | 0.00 | 0.00 | 59 | 1007.2 |
| 20260508041117 | 73 | 0 | 0.0 | 0.0 | 0.00 | 0.00 | 0.00 | 58 | 1006.8 |
| 20260508034117 | 73 | 0 | 0.0 | 0.0 | 0.00 | 0.00 | 0.00 | 59 | 1006.8 |
| 20260508031117 | 73 | 0 | 0.0 | 0.0 | 0.00 | 0.00 | 0.00 | 59 | 1006.9 |
| 20260508024117 | 73 | 0 | 0.0 | 0.0 | 0.00 | 0.00 | 0.00 | 59 | 1007.2 |
| 20260508021117 | 73 | 0 | 0.0 | 0.0 | 0.00 | 0.00 | 0.00 | 59 | 1007.3 |
| 20260508015517 | 71 | 0 | 0.0 | 0.0 | 0.00 | 0.00 | 0.00 | 60 | 1007.5 |
| 20260508013917 | 71 | 0 | 0.0 | 0.0 | 0.00 | 0.00 | 0.00 | 60 | 1007.6 |
| 20260508012317 | 71 | 0 | 0.0 | 0.0 | 0.00 | 0.00 | 0.00 | 61 | 1007.5 |
| 20260508010717 | 71 | 0 | 0.0 | 0.0 | 0.00 | 0.00 | 0.00 | 61 | 1007.6 |
| 20260508005917 | 71 | 0 | 0.0 | 0.0 | 0.00 | 0.00 | 0.00 | 60 | 1007.5 |
| 20260508005117 | 71 | 0 | 0.0 | 0.0 | 0.00 | 0.00 | 0.00 | 60 | 1007.5 |
| 20260508004317 | 71 | 0 | 0.0 | 0.0 | 0.00 | 0.00 | 0.00 | 61 | 1007.4 |
| 20260508003517 | 71 | 0 | 0.0 | 0.0 | 0.00 | 0.00 | 0.00 | 61 | 1007.6 |
| 20260508003117 | 71 | 0 | 0.0 | 0.0 | 0.00 | 0.00 | 0.00 | 61 | 1007.6 |
| 20260508002717 | 71 | 0 | 0.0 | 0.0 | 0.00 | 0.00 | 0.00 | 62 | 1007.7 |
| 20260508002317 | 71 | 0 | 0.0 | 0.0 | 0.00 | 0.00 | 0.00 | 62 | 1007.7 |
| 20260508001917 | 69 | 0 | 0.0 | 0.0 | 0.00 | 0.00 | 0.00 | 62 | 1007.8 |
| 20260508001717 | 69 | 0 | 0.0 | 0.0 | 0.00 | 0.00 | 0.00 | 62 | 1007.8 |
| 20260508001517 | 69 | 0 | 0.0 | 0.0 | 0.00 | 0.00 | 0.00 | 62 | 1007.8 |
| 20260508001317 | 69 | 0 | 0.0 | 0.0 | 0.00 | 0.00 | 0.00 | 62 | 1007.8 |
| 20260507234520 | 69 | 0 | 0.0 | 0.0 | 0.00 | 0.00 | 0.00 | 63 | 1008.0 |
| 20260507234320 | 69 | 0 | 0.0 | 0.0 | 0.00 | 0.00 | 0.00 | 63 | 1008.0 |
| 20260507234220 | 69 | 0 | 0.0 | 0.0 | 0.00 | 0.00 | 0.00 | 63 | 1008.0 |
| 20260507234120 | 69 | 0 | 0.0 | 0.0 | 0.00 | 0.00 | 0.00 | 63 | 1008.0 |
| 20260507234020 | 69 | 0 | 0.0 | 0.0 | 0.00 | 0.00 | 0.00 | 63 | 1008.0 |
| 20260507221250 | 68 | 0 | 0.0 | 0.0 | 0.00 | 0.00 | 0.00 | 66 | 1008.7 |
| 20260507214040 | 68 | 0 | 0.0 | 0.0 | 0.00 | 0.00 | 0.00 | 65 | 1008.5 |
| 20260507213645 | 68 | 0 | 0.0 | 0.0 | 0.00 | 0.00 | 0.00 | 65 | 1008.5 |
| 20260507213242 | 68 | 0 | 0.0 | 0.0 | 0.00 | 0.00 | 0.00 | 65 | 1008.5 |
| 20260507213041 | 68 | 0 | 0.0 | 0.0 | 0.00 | 0.00 | 0.00 | 65 | 1008.4 |
| 20260507212644 | 68 | 0 | 0.0 | 0.0 | 0.00 | 0.00 | 0.00 | 65 | 1008.4 |
| 20260507212343 | 68 | 0 | 0.0 | 0.0 | 0.00 | 0.00 | 0.00 | 65 | 1008.4 |
| 20260507212142 | 68 | 0 | 0.0 | 0.0 | 0.00 | 0.00 | 0.00 | 65 | 1008.4 |
| 20260507192200 | 69 | 0 | 0.0 | 0.0 | 0.00 | 0.00 | 0.00 | 61 | 1008.4 |
| 20260507185208 | 69 | 0 | 0.0 | 0.0 | 0.00 | 0.00 | 0.00 | 61 | 1008.3 |
| 20260507172215 | 69 | 0 | 0.0 | 0.0 | 0.00 | 0.00 | 0.00 | 61 | 1008.8 |
| 20260507162200 | 69 | 0 | 0.0 | 0.0 | 0.00 | 0.00 | 0.00 | 60 | 1009.2 |
| 20260507152200 | 71 | 0 | 0.0 | 0.0 | 0.00 | 0.00 | 0.00 | 60 | 1009.8 |
| 20260507142200 | 71 | 0 | 0.0 | 0.0 | 0.00 | 0.00 | 0.00 | 59 | 1010.1 |
| 20260507132200 | 71 | 0 | 0.0 | 0.0 | 0.00 | 0.00 | 0.00 | 59 | 1010.4 |
| 20260507125200 | 71 | 0 | 0.0 | 0.0 | 0.00 | 0.00 | 0.00 | 59 | 1010.1 |
| 20260507122200 | 71 | 0 | 0.0 | 0.0 | 0.00 | 0.00 | 0.00 | 58 | 1010.1 |
| 20260507115200 | 73 | 0 | 0.0 | 0.0 | 0.00 | 0.00 | 0.00 | 58 | 1010.2 |
| 20260507113600 | 73 | 0 | 0.0 | 0.0 | 0.00 | 0.00 | 0.00 | 58 | 1010.0 |
| 20260507112000 | 73 | 0 | 0.0 | 0.0 | 0.00 | 0.00 | 0.00 | 58 | 1009.9 |
| 20260507110400 | 73 | 0 | 0.0 | 0.0 | 0.00 | 0.00 | 0.00 | 58 | 1009.7 |
| 20260507104800 | 73 | 0 | 0.0 | 0.0 | 0.00 | 0.00 | 0.00 | 57 | 1009.7 |
| 20260507104000 | 73 | 0 | 0.0 | 0.0 | 0.00 | 0.00 | 0.00 | 57 | 1009.5 |
| 20260507103200 | 73 | 0 | 0.0 | 0.0 | 0.00 | 0.00 | 0.00 | 57 | 1009.5 |
| 20260507102400 | 73 | 0 | 0.0 | 0.0 | 0.00 | 0.00 | 0.00 | 57 | 1009.5 |
| 20260507101600 | 75 | 0 | 0.0 | 0.0 | 0.00 | 0.00 | 0.00 | 56 | 1009.5 |
| 20260507101200 | 75 | 0 | 0.0 | 0.0 | 0.00 | 0.00 | 0.00 | 56 | 1009.5 |
| 20260507100800 | 75 | 0 | 0.0 | 0.0 | 0.00 | 0.00 | 0.00 | 55 | 1009.5 |
| 20260507100400 | 75 | 0 | 0.0 | 0.0 | 0.00 | 0.00 | 0.00 | 55 | 1009.5 |
| 20260507100000 | 75 | 0 | 0.0 | 0.0 | 0.00 | 0.00 | 0.00 | 54 | 1009.4 |
| 20260507095800 | 75 | 0 | 0.0 | 0.0 | 0.00 | 0.00 | 0.00 | 54 | 1009.4 |
| 20260507095600 | 75 | 0 | 0.0 | 0.0 | 0.00 | 0.00 | 0.00 | 54 | 1009.4 |
| 20260507095400 | 75 | 0 | 0.0 | 0.0 | 0.00 | 0.00 | 0.00 | 54 | 1009.4 |
| 20260507095200 | 75 | 0 | 0.0 | 0.0 | 0.00 | 0.00 | 0.00 | 54 | 1009.4 |
| 20260507095101 | 75 | 0 | 0.0 | 0.0 | 0.00 | 0.00 | 0.00 | 54 | 1009.4 |
| 20260507095000 | 75 | 0 | 0.0 | 0.0 | 0.00 | 0.00 | 0.00 | 57 | 1009.3 |
| 20260507094900 | 75 | 0 | 0.0 | 0.0 | 0.00 | 0.00 | 0.00 | 58 | 1009.3 |
| 20260507083507 | 77 | 0 | 0.0 | 0.0 | 0.00 | 0.00 | 0.00 | 60 | 1009.1 |
| 20260507082707 | 75 | 0 | 0.0 | 0.0 | 0.00 | 0.00 | 0.00 | 55 | 1009.0 |
| 20260507081907 | 75 | 0 | 0.0 | 0.0 | 0.00 | 0.00 | 0.00 | 55 | 1009.0 |
| 20260507080709 | 75 | 0 | 0.0 | 0.0 | 0.00 | 0.00 | 0.00 | 55 | 1009.0 |
| 20260507080307 | 75 | 0 | 0.0 | 0.0 | 0.00 | 0.00 | 0.00 | 55 | 1009.0 |
| 20260507075907 | 75 | 0 | 0.0 | 0.0 | 0.00 | 0.00 | 0.00 | 56 | 1009.0 |
| 20260507075507 | 75 | 0 | 0.0 | 0.0 | 0.00 | 0.00 | 0.00 | 56 | 1009.0 |
| 20260507075307 | 75 | 0 | 0.0 | 0.0 | 0.00 | 0.00 | 0.00 | 56 | 1009.0 |